Home   Weather   Kiel   Past weeks

Flag for Germany Past Weather in Kiel, Schleswig-Holstein, Germany — Yesterday and Last 2 Weeks

Now
32 °F

Ice fog.


Feels Like: 26 °F
Forecast: 26 / 33 °F
Wind: 7 mph from Southwest

Location: Hohn

Current Time: Jan 25, 2017 at 12:36:15 am

Latest Report: Jan 24, 2017 at 11:20 pm


Visibility: 1 mi

Pressure: 30.45 "Hg

Humidity: 93%

Dew Point: 30 °F

Location of KielLocation

Past Weather in Kiel — Graph

°F

Kiel Temperature Yesterday

Maximum temperature yesterday: 36 °F (at 1:20 am)
Minimum temperature yesterday: 32 °F (at 5:29 pm)
Average temperature yesterday: 34 °F

High & Low Weather Summary for the Past Weeks

 TemperatureHumidityPressure
High46 °F (Jan 11, 1:20 pm)100% (Jan 13, 3:20 am)30.72 "Hg (Jan 13, 3:20 am)
Low18 °F (Jan 16, 8:20 am)56% (Jan 15, 3:20 pm)29.15 "Hg (Jan 13, 4:20 am)
Average34 °F87%30.10 "Hg
* Reported Jan 9 11:12 pm — Jan 24 11:20 pm, Kiel, Weather by CustomWeather, © 2017

Note: Actual official high and low records may vary slightly from our data, if they occured in-between our weather recording intervals... More about our weather records

Advertising

Kiel Weather History for the Previous 24 Hours

Scroll right to see more
 ConditionsComfort  
Time TempWeatherWind HumidityBarometerVisibility
11:20 pm
Tue, Jan 24
32 °FIce fog.7 mph93%30.45 "Hg1 mi
10:48 pm32 °FIce fog.6 mph93%30.45 "Hg1 mi
10:20 pm32 °FIce fog.8 mph93%30.45 "Hg1 mi
9:46 pm32 °FIce fog.5 mph93%30.42 "Hg1 mi
9:20 pm32 °FIce fog.6 mph93%30.42 "Hg1 mi
8:49 pm32 °FIce fog.7 mph93%30.42 "Hg1 mi
8:20 pm32 °FIce fog.7 mph100%30.42 "Hg1 mi
7:20 pm32 °FIce fog.6 mph100%30.42 "Hg1 mi
6:41 pm32 °FIce fog.9 mph100%30.42 "Hg1 mi
6:20 pm32 °FIce fog.9 mph93%30.39 "Hg1 mi
5:29 pm32 °FIce fog.8 mph100%30.42 "Hg1 mi
4:20 pm34 °FFog.8 mph93%30.39 "Hg1 mi
3:20 pm36 °FFog.7 mph87%30.39 "Hg1 mi
2:20 pm36 °FFog.9 mph93%30.36 "Hg1 mi
1:20 pm36 °FFog.6 mph93%30.36 "Hg1 mi
12:40 pm36 °FFog.6 mph93%30.36 "Hg1 mi
12:20 pm36 °FFog.6 mph93%30.36 "Hg1 mi
11:40 am34 °FFog.6 mph100%30.36 "Hg1 mi
11:20 am34 °FFog.6 mph100%30.36 "Hg0 mi
10:20 am34 °FFog.7 mph93%30.33 "Hg0 mi
9:20 am34 °FFog.5 mph93%30.33 "Hg0 mi
8:20 am34 °FFog.5 mph93%30.30 "Hg0 mi
8:03 am34 °FFog.7 mph93%30.30 "Hg0 mi
7:20 am34 °FFog.7 mph93%30.30 "Hg1 mi
6:47 am34 °FFog.7 mph93%30.30 "Hg1 mi
6:20 am34 °FFog.5 mph93%30.27 "Hg0 mi
5:20 am34 °FFog.7 mph100%30.27 "Hg0 mi
4:20 am34 °FFog.7 mph100%30.27 "Hg0 mi
3:20 am34 °FFog.8 mph100%30.27 "Hg0 mi
2:20 am34 °FFog.6 mph100%30.24 "Hg1 mi
1:20 am36 °FFog.6 mph93%30.27 "Hg1 mi
12:20 am34 °FFog.5 mph93%30.27 "Hg1 mi
Weather by CustomWeather, © 2017

See weather overviewHow to use our weather pages